Location: *
(51.2167°N, 10.0667°E)
Time: 06:02:33
(UTC+00:00)

FengYun 1-2 T - Pass Details

Date: 12 December 2019
Orbit: 847 x 880 km, 98.7° (Epoch: 21 January)

Event Time Altitude Azimuth Distance (km) Brightness Sun altitude
Rises 16:51:37 0° 150° (SSE) 3,400 7.2 -14.5°
Reaches altitude 10° 16:53:59 10° 147° (SSE) 2,469 6.5 -14.9°
Maximum altitude 16:59:22 60° 69° (ENE) 970 4.2 -15.7°
Drops below altitude 10° 17:04:48 10° 350° (N) 2,499 6.6 -16.5°
Sets 17:07:13 0° 348° (NNW) 3,444 7.3 -16.9°
